sat.trackr.live / text

‹ back to catalog

STARLINK-37862

NORAD 69551 · 2026-135F

PAYLOAD ACTIVE UNKNOWN

§ Identity

Operator
Country
US
Launch date
2026-06-15
Launch site
AFWTR
Launch vehicle
Mass (kg)
RCS (m²)

Purposes: comms

External: N2YO · Heavens-Above · Gunter

§ Orbital elements

Epoch: 2026-09-20T00:23:23.081568Z

Period
93.90 min
Inclination
97.2853°
Eccentricity
0.0000564
Mean motion
15.33472747 rev/d
Perigee alt
465.1 km
Apogee alt
465.8 km
Semi-major
6,843.6 km
B*
6.2484e-4
RAAN
290.6723°
Arg perigee
126.6632°
Mean anomaly
233.4662°
Rev number
1,492

§ Raw data

STARLINK-378621 69551U 26135F   26263.01623937  .00020168  00000+0  62484-3 0  99962 69551  97.2853 290.6723 0000564 126.6632 233.4662 15.33472747 14927

JSON: /api/v1/satellites/69551 · /tle

For live sub-satellite position, see the globe view (requires WebGL).

§ Visibility from observer

Set your observer location to see the next 7 days of passes ≥ 10°. The values pass through the URL so the page stays shareable.

No JS? Fill the form by hand. The geolocation button needs JavaScript.